AMC-3 (GE-3)

Last updated on Sun May 19 2024 00:02:36 GMT+0000 (Coordinated Universal Time)

1 24936U 97050A 24139.47276678 -.00000249 00000+0 00000+0 0 9995 2 24936 6.2755 72.4812 0002972 345.2015 277.1523 1.00272489 44812
UTC large
Height (km)
Speed (km/s)
/
Latitude / Longitude
Inclination (degrees)
Orbital Period (minutes)
Azimuth
Elevation
Range (km)
Doppler Factor

Next 0 passes for location: London (51.5072 / 0.1276)

Sorry there are no passes over London.
AMC-3 (GE-3)